sat.trackr.live / text

‹ back to catalog

STARLINK-3198

NORAD 49763 · 2021-115AR

PAYLOAD ACTIVE UNKNOWN

§ Identity

Operator
Country
US
Launch date
2021-12-02
Launch site
AFETR
Launch vehicle
Mass (kg)
RCS (m²)

Purposes: comms

External: N2YO · Heavens-Above · Gunter

§ Orbital elements

Epoch: 2026-05-24T17:48:05.480640Z

Period
95.44 min
Inclination
53.2139°
Eccentricity
0.0001056
Mean motion
15.08834772 rev/d
Perigee alt
539.0 km
Apogee alt
540.5 km
Semi-major
6,917.9 km
B*
1.3156e-5
RAAN
157.7102°
Arg perigee
73.4937°
Mean anomaly
286.6171°
Rev number
24,716

§ Raw data

STARLINK-31981 49763U 21115AR  26144.74173010 -.00000078  00000+0  13156-4 0  99942 49763  53.2139 157.7102 0001056  73.4937 286.6171 15.08834772247168

JSON: /api/v1/satellites/49763 · /tle

For live sub-satellite position, see the globe view (requires WebGL).

§ Visibility from observer

Set your observer location to see the next 7 days of passes ≥ 10°. The values pass through the URL so the page stays shareable.

No JS? Fill the form by hand. The geolocation button needs JavaScript.